EW9528 Weather Reports


Display with metric or nautical units.
time (UTC)temp
F
wind
direction
speed
MPH
gust
MPH
rain 1hr
in
rain 24hr
in
rain mn
in
humidity
%
barometer
mb
20260906010951 85 206 6.0 8.0 0.00 0.00 0.00 15 1017.1
20260906005935 85 226 10.0 18.0 0.00 0.00 0.00 15 1017.1
20260906004933 86 213 5.0 8.0 0.00 0.00 0.00 15 1017.1
20260906004033 86 219 4.0 11.0 0.00 0.00 0.00 15 1017.3
20260906003037 87 208 7.0 12.0 0.00 0.00 0.00 15 1017.2
20260906002034 87 214 5.0 6.0 0.00 0.00 0.00 15 1017.2
20260906001034 88 199 3.0 9.0 0.00 0.00 0.00 15 1017.2
20260906000036 88 204 6.0 8.0 0.00 0.00 0.00 14 1017.1
20260905235035 88 213 3.0 6.0 0.00 0.00 0.00 15 1017.1
20260905234033 88 177 7.0 9.0 0.00 0.00 0.00 16 1017.2
20260905233035 87 292 2.0 3.0 0.00 0.00 0.00 19 1017.3
20260905232033 87 129 0.0 2.0 0.00 0.00 0.00 18 1017.5
20260905231035 86 127 4.0 6.0 0.00 0.00 0.00 16 1017.5
20260905230036 86 158 4.0 8.0 0.00 0.00 0.00 17 1017.7
20260905224053 86 169 8.0 11.0 0.00 0.00 0.00 16 1017.8
20260905223036 86 154 5.0 8.0 0.00 0.00 0.00 16 1017.8
20260905222033 86 151 5.0 9.0 0.00 0.00 0.00 18 1017.9
20260905221035 86 201 4.0 6.0 0.00 0.00 0.00 18 1018.2
20260905220035 85 133 5.0 8.0 0.00 0.00 0.00 16 1018.1
20260905215049 85 180 5.0 8.0 0.00 0.00 0.00 17 1018.4
20260905214134 85 185 4.0 6.0 0.00 0.00 0.00 17 1018.7
20260905213134 84 168 5.0 8.0 0.00 0.00 0.00 18 1018.7
20260905213050 84 165 6.0 9.0 0.00 0.00 0.00 18 1018.8
20260905212034 84 152 9.0 13.0 0.00 0.00 0.00 19 1018.7
20260905210135 83 156 5.0 10.0 0.00 0.00 0.00 19 1018.9
20260905205149 83 138 5.0 10.0 0.00 0.00 0.00 19 1019.0
20260905204234 83 152 7.0 11.0 0.00 0.00 0.00 20 1019.1
20260905203235 83 163 5.0 7.0 0.00 0.00 0.00 21 1019.2
20260905202235 82 133 5.0 9.0 0.00 0.00 0.00 23 1019.1
20260905201235 82 138 7.0 11.0 0.00 0.00 0.00 22 1019.5
20260905200236 81 124 7.0 14.0 0.00 0.00 0.00 22 1019.5
20260905195234 81 139 6.0 9.0 0.00 0.00 0.00 23 1019.4
20260905194234 81 135 7.0 14.0 0.00 0.00 0.00 23 1019.7
20260905193333 80 146 5.0 10.0 0.00 0.00 0.00 24 1019.8
20260905191333 80 107 6.0 11.0 0.00 0.00 0.00 22 1020.1
20260905185434 80 133 8.0 14.0 0.00 0.00 0.00 23 1020.4
20260905184434 79 156 5.0 8.0 0.00 0.00 0.00 23 1020.6
20260905183433 79 130 7.0 11.0 0.00 0.00 0.00 24 1020.6
20260905182450 78 141 6.0 11.0 0.00 0.00 0.00 25 1020.8
20260905180535 78 135 6.0 9.0 0.00 0.00 0.00 26 1021.0
20260905180440 78 121 4.0 10.0 0.00 0.00 0.00 26 1021.0
20260905175452 78 121 6.0 11.0 0.00 0.00 0.00 26 1021.2
20260905173549 77 155 6.0 10.0 0.00 0.00 0.00 29 1021.2
20260905172536 76 161 5.0 11.0 0.00 0.00 0.00 28 1021.3
20260905171535 76 157 8.0 11.0 0.00 0.00 0.00 27 1021.3
20260905170534 76 160 9.0 11.0 0.00 0.00 0.00 30 1021.3
20260905165533 75 143 4.0 8.0 0.00 0.00 0.00 31 1021.3
20260905163534 73 170 7.0 13.0 0.00 0.00 0.00 33 1021.4
20260905162536 73 171 5.0 11.0 0.00 0.00 0.00 36 1021.1
20260905161632 73 170 7.0 11.0 0.00 0.00 0.00 36 1021.2
20260905155635 72 166 7.0 11.0 0.00 0.00 0.00 37 1021.1
20260905154651 72 162 7.0 9.0 0.00 0.00 0.00 37 1021.2
20260905153735 71 168 7.0 10.0 0.00 0.00 0.00 37 1021.1
20260905152733 70 181 5.0 9.0 0.00 0.00 0.00 41 1021.3
20260905150734 70 179 3.0 6.0 0.00 0.00 0.00 42 1021.3
20260905143634 67 180 0.0 2.0 0.00 0.00 0.00 54 1021.3
20260905142634 66 180 3.0 4.0 0.00 0.00 0.00 55 1021.3
20260905140651 64 180 1.0 3.0 0.00 0.00 0.00 50 1021.1
20260905133736 62 202 1.0 1.0 0.00 0.00 0.00 54 1020.6
20260905132834 62 202 1.0 2.0 0.00 0.00 0.00 52 1020.6
20260905131933 62 202 3.0 3.0 0.00 0.00 0.00 49 1020.6
20260905131032 63 202 1.0 2.0 0.00 0.00 0.00 48 1020.4
20260905125034 64 247 0.0 0.0 0.00 0.00 0.00 48 1020.2
20260905124034 64 230 0.0 1.0 0.00 0.00 0.00 46 1020.2
20260905123133 65 202 0.0 0.0 0.00 0.00 0.00 42 1020.1
20260905122150 66 202 1.0 2.0 0.00 0.00 0.00 39 1019.9
20260905121233 64 178 4.0 7.0 0.00 0.00 0.00 39 1019.8
20260905121137 64 180 2.0 4.0 0.00 0.00 0.00 39 1019.7
20260905115332 67 180 1.0 2.0 0.00 0.00 0.00 31 1019.6
20260905114333 69 180 0.0 1.0 0.00 0.00 0.00 26 1019.8
20260905114234 69 180 0.0 0.0 0.00 0.00 0.00 26 1019.8
20260905113333 71 180 0.0 1.0 0.00 0.00 0.00 22 1019.8
20260905112335 72 185 2.0 6.0 0.00 0.00 0.00 20 1019.6
20260905111334 72 194 6.0 11.0 0.00 0.00 0.00 20 1019.5
20260905110334 72 202 4.0 6.0 0.00 0.00 0.00 19 1019.5
20260905105433 72 190 5.0 7.0 0.00 0.00 0.00 21 1019.4
20260905103435 73 193 7.0 10.0 0.00 0.00 0.00 20 1019.4
20260905102451 74 189 5.0 8.0 0.00 0.00 0.00 19 1019.3
20260905101434 74 192 8.0 11.0 0.00 0.00 0.00 20 1019.4
20260905100436 73 191 6.0 10.0 0.00 0.00 0.00 21 1019.4
20260905094434 74 189 8.0 15.0 0.00 0.00 0.00 22 1019.1
20260905093433 73 187 7.0 10.0 0.00 0.00 0.00 23 1018.9
20260905092449 72 194 4.0 7.0 0.00 0.00 0.00 28 1018.8
20260905091435 71 180 2.0 4.0 0.00 0.00 0.00 29 1019.0
20260905090434 70 192 7.0 10.0 0.00 0.00 0.00 37 1018.9
20260905085436 71 180 2.0 4.0 0.00 0.00 0.00 39 1018.8
20260905085334 72 180 1.0 2.0 0.00 0.00 0.00 38 1018.8
20260905084334 74 181 3.0 5.0 0.00 0.00 0.00 25 1018.7
20260905084235 74 173 5.0 9.0 0.00 0.00 0.00 26 1018.8
20260905083334 73 170 7.0 10.0 0.00 0.00 0.00 28 1018.5
20260905082433 73 186 4.0 9.0 0.00 0.00 0.00 29 1018.5
20260905081435 75 162 4.0 7.0 0.00 0.00 0.00 27 1018.4
20260905080435 76 190 7.0 11.0 0.00 0.00 0.00 24 1018.3
20260905075451 76 204 5.0 7.0 0.00 0.00 0.00 24 1018.3
20260905072635 76 204 6.0 9.0 0.00 0.00 0.00 23 1017.9
20260905071634 76 207 8.0 11.0 0.00 0.00 0.00 24 1017.8
20260905070633 76 212 8.0 13.0 0.00 0.00 0.00 25 1017.7
20260905070533 76 208 8.0 14.0 0.00 0.00 0.00 25 1017.7
20260905065533 76 227 8.0 13.0 0.00 0.00 0.00 25 1017.4
20260905064536 76 228 7.0 12.0 0.00 0.00 0.00 25 1017.2
20260905063533 76 227 5.0 8.0 0.00 0.00 0.00 26 1017.2
20260905062549 76 220 5.0 10.0 0.00 0.00 0.00 25 1017.1
20260905061634 76 212 5.0 9.0 0.00 0.00 0.00 25 1016.9
20260905055643 78 228 6.0 11.0 0.00 0.00 0.00 24 1016.6
20260905054701 77 211 6.0 11.0 0.00 0.00 0.00 23 1016.6
20260905052743 78 228 5.0 9.0 0.00 0.00 0.00 24 1016.6
20260905045744 79 229 8.0 13.0 0.00 0.00 0.00 22 1016.0
20260905043743 79 228 10.0 18.0 0.00 0.00 0.00 22 1016.0
20260905042743 79 210 7.0 11.0 0.00 0.00 0.00 21 1016.1
20260905041743 79 220 6.0 10.0 0.00 0.00 0.00 21 1016.1
20260905040745 80 230 7.0 10.0 0.00 0.00 0.00 19 1016.1
20260905033842 80 225 7.0 14.0 0.00 0.00 0.00 20 1015.9
20260905032902 79 228 9.0 14.0 0.00 0.00 0.00 20 1015.6
20260905031845 80 226 6.0 9.0 0.00 0.00 0.00 20 1015.6
20260905030942 80 228 7.0 9.0 0.00 0.00 0.00 19 1015.3
20260905025944 81 236 4.0 6.0 0.00 0.00 0.00 20 1015.4
20260905024944 81 223 7.0 11.0 0.00 0.00 0.00 21 1015.2
20260905024041 81 229 7.0 11.0 0.00 0.00 0.00 21 1014.9
20260905023058 82 218 6.0 10.0 0.00 0.00 0.00 20 1014.9
20260905022044 82 228 7.0 11.0 0.00 0.00 0.00 20 1014.8
20260905021058 82 226 6.0 8.0 0.00 0.00 0.00 20 1014.7
20260905020059 83 195 8.0 11.0 0.00 0.00 0.00 20 1014.7
20260905015142 83 196 7.0 11.0 0.00 0.00 0.00 19 1014.6
20260905014145 83 199 8.0 18.0 0.00 0.00 0.00 20 1014.5
20260905013144 84 203 6.0 10.0 0.00 0.00 0.00 20 1014.5
20260905013044 84 228 6.0 9.0 0.00 0.00 0.00 20 1014.5